Home > Weather > Medford > Past weeks

Flag for USA Past Weather in Medford, Oregon, USA — Yesterday and Last 2 Weeks

Now
79 °F

Sunny.


Feels Like: 79 °F
Forecast: 59 / 90 °F
Wind: 8 mph from Northwest

Location: Rogue Valley International Airport

Current Time: Jun 30, 2016 at 9:37:01 PM

Latest Report: Jun 30, 2016 at 8:53 PM


Visibility: 10 mi

Pressure: 29.97 "Hg

Humidity: 29%

Dew Point: 44 °F

Location of MedfordLocation

Past Weather in Medford — Graph

°F

Medford Temperature Yesterday

Maximum temperature yesterday: 91 °F (at 3:53 PM)
Minimum temperature yesterday: 60 °F (at 5:53 AM)
Average temperature yesterday: 76 °F

High & Low Weather Summary for the Past Weeks

 TemperatureHumidityPressure
High94 °F (Jun 26, 4:53 PM)93% (Jun 17, 5:53 AM)30.29 "Hg (Jun 17, 5:53 AM)
Low47 °F (Jun 16, 3:53 AM)13% (Jun 21, 4:53 PM)29.89 "Hg (Jun 22, 5:53 PM)
Average69 °F49%30.08 "Hg
* Reported Jun 15 7:53 PM — Jun 30 7:53 PM, Medford, Weather by CustomWeather, © 2016

Note: Actual official high and low records may vary slightly from our data, if they occured in-between our weather recording intervals... More about our weather records

Advertising

Medford Weather History for the Previous 24 Hours

Scroll right to see more
 ConditionsComfort  
Time TempWeatherWind HumidityBarometerVisibility
7:53 PM
Thu, Jun 30
83 °FSunny.12 mph26%29.95 "Hg10 mi
6:53 PM88 °FSunny.13 mph23%29.93 "Hg10 mi
5:53 PM90 °FSunny.10 mph24%29.92 "Hg10 mi
4:53 PM91 °FSunny.12 mph23%29.93 "Hg10 mi
3:53 PM89 °FSunny.7 mph22%29.96 "Hg10 mi
2:53 PM87 °FSunny.No wind25%29.98 "Hg10 mi
1:53 PM85 °FSunny.3 mph28%30.01 "Hg10 mi
12:53 PM82 °FSunny.5 mph31%30.03 "Hg10 mi
11:53 AM78 °FSunny.No wind35%30.06 "Hg10 mi
10:53 AM75 °FSunny.No wind40%30.08 "Hg10 mi
9:53 AM73 °FSunny.3 mph46%30.11 "Hg10 mi
8:53 AM67 °FSunny.No wind55%30.12 "Hg10 mi
7:53 AM64 °FSunny.No wind58%30.12 "Hg10 mi
6:53 AM59 °FSunny.3 mph69%30.13 "Hg10 mi
5:53 AM57 °FClear.3 mph69%30.12 "Hg10 mi
4:53 AM60 °FClear.3 mph62%30.11 "Hg10 mi
3:53 AM63 °FClear.No wind54%30.10 "Hg10 mi
2:53 AM62 °FClear.3 mph60%30.09 "Hg10 mi
1:53 AM66 °FClear.3 mph47%30.08 "Hg10 mi
12:53 AM68 °FClear.3 mph44%30.08 "Hg10 mi
11:53 PM
Wed, Jun 29
71 °FClear.No wind41%30.08 "Hg10 mi
10:53 PM73 °FClear.3 mph36%30.07 "Hg10 mi
9:53 PM75 °FClear.6 mph32%30.06 "Hg10 mi
Weather by CustomWeather, © 2016

See weather overviewHow to use our weather pages